Location: Litvinovka
(48.6667°N, 34.3500°E)
Time: 11:16:46
(UTC+00:00)

Cosmos 2227 Rocket - Pass Details

Date: 18 September 2020
Orbit: 840 x 844 km, 71.0° (Epoch: 25 October)

Event Time Altitude Azimuth Distance (km) Brightness Sun altitude
Rises 16:32:18 0° 247° (WSW) 3,391 6.4 -8.0°
Reaches altitude 10° 16:35:09 10° 260° (W) 2,459 5.9 -8.5°
Maximum altitude 16:39:47 26° 316° (NW) 1,624 4.5 -9.2°
Drops below altitude 10° 16:44:27 10° 11° (N) 2,468 4.7 -10.0°
Sets 16:47:20 0° 24° (NNE) 3,406 5.2 -10.4°
